FW8494 Weather Reports


time (UTC)temp
C
wind
direction
speed
KPH
gust
KPH
rain 1hr
cm
rain 24hr
cm
rain mn
cm
humidity
%
barometer
mb
20260906234514 17 297 4.8 0.0 0.00 0.00 2.69 72 1011.7
20260906233013 17 344 6.4 0.0 0.00 0.00 2.69 73 1011.6
20260906231516 17 324 8.0 0.0 0.00 0.00 2.69 72 1011.6
20260906230013 17 312 8.0 0.0 0.00 0.00 2.69 74 1011.5
20260906224508 17 310 8.0 0.0 0.00 0.00 2.69 74 1011.9
20260906223007 17 290 6.4 0.0 0.00 0.00 2.69 72 1012.0
20260906221512 16 300 8.0 0.0 0.00 0.00 2.69 74 1012.2
20260906220010 16 257 9.7 0.0 0.00 0.00 2.69 75 1012.5
20260906214503 16 255 4.8 0.0 0.00 0.00 2.69 75 1012.5
20260906213003 16 280 4.8 0.0 0.00 0.00 2.69 75 1012.3
20260906211505 16 285 6.4 0.0 0.00 0.00 2.69 75 1012.2
20260906210002 16 261 4.8 0.0 0.00 0.00 2.69 76 1012.0
20260906204502 16 315 6.4 0.0 0.00 0.00 2.69 75 1012.1
20260906203100 16 315 1.6 0.0 0.00 0.00 2.69 72 1012.1
20260906201614 16 284 3.2 0.0 0.00 0.00 2.69 71 1012.2
20260906200059 16 333 4.8 0.0 0.00 0.00 2.69 71 1012.2
20260906194556 16 350 6.4 0.0 0.00 0.00 2.69 74 1012.3
20260906193056 16 343 6.4 0.0 0.00 0.00 2.69 76 1012.4
20260906191559 16 329 4.8 0.0 0.00 0.00 2.69 75 1012.6
20260906190053 15 46 3.2 0.0 0.00 0.00 2.69 74 1012.7
20260906184551 15 360 4.8 0.0 0.00 0.00 2.69 77 1012.8
20260906183111 15 35 6.4 0.0 0.00 0.00 2.69 79 1012.8
20260906181551 14 33 8.0 0.0 0.00 0.00 2.69 80 1012.9
20260906174543 14 36 14.5 0.0 0.00 0.00 2.69 85 1012.6
20260906173039 13 11 14.5 0.0 0.00 0.00 2.69 87 1013.5
20260906171539 13 5 17.7 0.0 0.00 0.00 2.69 87 1013.8
20260906170039 13 15 16.1 0.0 0.00 0.00 2.69 89 1014.0
20260906164533 13 16 14.5 0.0 0.00 0.00 2.69 90 1014.0
20260906163032 12 32 8.0 0.0 0.00 0.00 2.69 92 1014.6
20260906161529 12 310 9.7 0.0 0.00 0.00 2.69 92 1015.3
20260906160030 12 294 8.0 0.0 0.00 0.00 2.67 92 1015.3
20260906154527 12 350 9.7 0.0 0.00 0.00 2.67 93 1014.7
20260906153027 12 334 6.4 0.0 0.00 0.00 2.67 92 1015.1
20260906151531 11 350 11.3 0.0 0.00 0.00 2.67 93 1015.0
20260906150026 11 307 12.9 0.0 0.00 0.00 2.67 93 1015.1
20260906144528 11 300 12.9 0.0 0.00 0.00 2.67 93 1015.1
20260906143025 11 308 16.1 0.0 0.00 0.00 2.67 93 1015.4
20260906141524 11 304 19.3 0.0 0.00 0.00 2.67 93 1015.6
20260906140035 11 283 19.3 0.0 0.00 0.00 2.57 93 1016.2
20260906134522 11 312 22.5 0.0 0.00 0.00 2.46 93 1015.9
20260906133021 11 275 29.0 0.0 0.00 0.00 2.01 92 1015.7
20260906131520 11 286 19.3 0.0 0.00 0.00 1.96 92 1015.4
20260906130025 11 259 4.8 0.0 0.00 0.00 1.96 92 1014.9
20260906124518 11 311 6.4 0.0 0.00 0.00 1.96 92 1014.8
20260906123030 11 321 14.5 0.0 0.00 0.00 1.96 91 1015.0
20260906121530 12 331 16.1 0.0 0.00 0.00 1.96 91 1015.2
20260906120017 12 325 16.1 0.0 0.00 0.00 1.96 91 1014.9
20260906114522 12 312 22.5 0.0 0.00 0.00 1.96 91 1015.4
20260906113036 11 294 22.5 0.0 0.00 0.00 1.96 92 1015.7
20260906111515 12 250 17.7 0.0 0.00 0.00 1.96 91 1016.0
20260906110013 12 331 6.4 0.0 0.00 0.00 1.96 92 1015.0
20260906104517 12 42 8.0 0.0 0.00 0.00 1.96 92 1014.7
20260906103011 12 35 12.9 0.0 0.00 0.00 1.96 93 1014.5
20260906101509 12 47 11.3 0.0 0.00 0.00 1.96 93 1014.5
20260906100015 12 44 9.7 0.0 0.00 0.00 1.96 93 1015.0
20260906094505 12 11 12.9 0.0 0.00 0.00 1.96 94 1015.0
20260906093004 12 13 14.5 0.0 0.00 0.00 1.96 94 1015.0
20260906091503 11 40 12.9 0.0 0.00 0.00 1.96 94 1015.0
20260906090001 11 12 11.3 0.0 0.00 0.00 1.96 93 1015.2
20260906084559 11 28 9.7 0.0 0.00 0.00 1.96 93 1015.5
20260906083101 11 13 6.4 0.0 0.00 0.00 1.91 93 1016.3
20260906081612 11 342 9.7 0.0 0.00 0.00 1.75 93 1017.1
20260906074610 11 249 9.7 0.0 0.00 0.00 0.81 92 1017.6
20260906073054 11 321 22.5 0.0 0.00 0.00 0.69 92 1015.5
20260906071551 11 5 19.3 0.0 0.00 0.00 0.64 92 1016.1
20260906070049 12 330 11.3 0.0 0.00 0.00 0.28 92 1017.4
20260906064548 12 340 17.7 0.0 0.00 0.00 0.10 92 1016.5
20260906063046 11 12 19.3 0.0 0.00 0.00 0.05 92 1016.9
20260906061543 12 342 14.5 0.0 0.00 0.00 0.05 92 1017.1
20260906060039 12 360 11.3 0.0 0.00 0.00 0.00 92 1017.9
20260906054538 12 309 12.9 0.0 0.00 0.00 0.91 91 1018.3
20260906053036 12 296 12.9 0.0 0.00 0.00 0.79 91 1017.7
20260906051539 12 360 11.3 0.0 0.00 0.00 0.69 90 1017.6
20260906050044 12 5 14.5 0.0 0.00 0.00 0.66 90 1017.2
20260906044538 12 346 9.7 0.0 0.00 0.00 0.53 88 1017.3
20260906043032 12 303 11.3 0.0 0.00 0.00 0.43 88 1017.3
20260906041535 12 344 9.7 0.0 0.00 0.00 0.43 88 1016.9
20260906040031 13 36 4.8 0.0 0.00 0.00 0.43 88 1017.0
20260906034530 13 319 12.9 0.0 0.00 0.00 0.43 88 1016.4
20260906033040 13 15 19.3 0.0 0.00 0.00 0.43 87 1015.8
20260906031531 13 19 9.7 0.0 0.00 0.00 0.36 82 1017.0
20260906030027 15 336 11.3 0.0 0.00 0.00 0.30 75 1016.8
20260906024523 15 308 17.7 0.0 0.00 0.00 0.30 72 1015.7
20260906023025 15 342 14.5 0.0 0.00 0.00 0.30 72 1014.9
20260906021522 15 355 16.1 0.0 0.00 0.00 0.30 71 1014.6
20260906020023 16 342 16.1 0.0 0.00 0.00 0.30 69 1014.6
20260906014522 16 350 14.5 0.0 0.00 0.00 0.30 68 1015.0
20260906013022 16 340 12.9 0.0 0.00 0.00 0.30 66 1014.6
20260906011528 17 9 16.1 0.0 0.00 0.00 0.30 65 1014.6
20260906010023 17 15 14.5 0.0 0.00 0.00 0.30 63 1014.4
20260906004518 18 23 14.5 0.0 0.00 0.00 0.30 62 1014.4
20260906003022 18 349 14.5 0.0 0.00 0.00 0.30 61 1014.5
20260906001519 19 9 11.3 0.0 0.00 0.00 0.30 56 1014.6
20260906000018 19 344 12.9 0.0 0.00 0.00 0.30 57 1014.7